Home   Weather   Drøbak   Past weeks

Flag for Norway Past Weather in Drøbak, Norway — Yesterday and Last 2 Weeks

Now
30 °F

Quite cool.


Feels Like: 30 °F
Forecast: 31 / 43 °F
Wind: No wind

Location: Båtstø - MADIS Station

Current Time: Jan 18, 2017 at 5:29:26 pm

Latest Report: Jan 18, 2017 at 4:43 pm


Visibility: N/A

Pressure: 30.24 "Hg

Humidity: 97%

Dew Point: 29 °F

Location of DrøbakLocation

Past Weather in Drøbak — Graph

°F

Drøbak Temperature Yesterday

Maximum temperature yesterday: 30 °F (at 5:08 pm)
Minimum temperature yesterday: 24 °F (at 12:13 am)
Average temperature yesterday: 27 °F

High & Low Weather Summary for the Past Weeks

 TemperatureHumidityPressure
High43 °F (Jan 11, 12:18 am)99% (Jan 6, 10:38 am)30.63 "Hg (Jan 6, 10:38 am)
Low14 °F (Jan 5, 9:18 am)55% (Jan 4, 11:23 am)28.47 "Hg (Jan 11, 2:53 pm)
Average30 °F84%29.81 "Hg
* Reported Jan 3 4:08 pm — Jan 18 4:28 pm, Drøbak, Weather by CustomWeather, © 2017

Note: Actual official high and low records may vary slightly from our data, if they occured in-between our weather recording intervals... More about our weather records

Advertising

Drøbak Weather History for the Previous 24 Hours

Scroll right to see more
 ConditionsComfort  
Time TempWeatherWind HumidityBarometerVisibility
4:28 pm
Wed, Jan 18
30 °FQuite cool.No wind97%30.24 "HgN/A
3:33 pm30 °FQuite cool.No wind97%30.24 "HgN/A
3:18 pm30 °FQuite cool.No wind97%30.25 "HgN/A
2:48 pm30 °FQuite cool.No wind97%30.24 "HgN/A
2:38 pm30 °FQuite cool.No wind97%30.25 "HgN/A
2:18 pm30 °FQuite cool.No wind97%30.25 "HgN/A
1:48 pm30 °FQuite cool.No wind97%30.26 "HgN/A
1:28 pm30 °FQuite cool.No wind97%30.27 "HgN/A
1:08 pm30 °FQuite cool.No wind97%30.28 "HgN/A
12:48 pm30 °FQuite cool.No wind96%30.28 "HgN/A
12:38 pm30 °FQuite cool.No wind97%30.28 "HgN/A
12:13 pm30 °FQuite cool.No wind96%30.29 "HgN/A
11:43 am30 °FQuite cool.No wind96%30.29 "HgN/A
11:38 am30 °FQuite cool.No wind96%30.30 "HgN/A
10:28 am30 °FQuite cool.No wind96%30.31 "HgN/A
10:23 am30 °FQuite cool.No wind96%30.31 "HgN/A
9:38 am30 °FQuite cool.No wind96%30.31 "HgN/A
9:23 am29 °FQuite cool.No wind96%30.30 "HgN/A
8:38 am29 °FQuite cool.No wind96%30.30 "HgN/A
8:23 am29 °FQuite cool.No wind96%30.30 "HgN/A
7:48 am29 °FQuite cool.No wind95%30.30 "HgN/A
7:38 am29 °FQuite cool.No wind95%30.29 "HgN/A
7:03 am29 °FQuite cool.No wind95%30.30 "HgN/A
6:43 am29 °FQuite cool.No wind95%30.31 "HgN/A
6:38 am29 °FQuite cool.No wind95%30.31 "HgN/A
6:13 am29 °FQuite cool.No wind95%30.30 "HgN/A
5:18 am29 °FQuite cool.No wind95%30.31 "HgN/A
5:13 am29 °FQuite cool.No wind95%30.32 "HgN/A
4:43 am29 °FQuite cool.No wind94%30.32 "HgN/A
4:28 am29 °FQuite cool.No wind94%30.33 "HgN/A
4:23 am29 °FQuite cool.No wind94%30.33 "HgN/A
3:53 am30 °FQuite cool.No wind94%30.33 "HgN/A
3:18 am30 °FQuite cool.No wind94%30.34 "HgN/A
2:48 am30 °FQuite cool.No wind94%30.35 "HgN/A
2:38 am30 °FQuite cool.No wind94%30.35 "HgN/A
2:18 am30 °FQuite cool.No wind94%30.35 "HgN/A
1:48 am29 °FQuite cool.No wind94%30.35 "HgN/A
1:38 am29 °FQuite cool.No wind94%30.36 "HgN/A
12:48 am30 °FQuite cool.No wind94%30.35 "HgN/A
12:28 am30 °FQuite cool.No wind94%30.35 "HgN/A
11:43 pm
Tue, Jan 17
29 °FQuite cool.No wind93%30.35 "HgN/A
11:38 pm29 °FQuite cool.No wind93%30.35 "HgN/A
11:08 pm29 °FQuite cool.No wind93%30.35 "HgN/A
10:18 pm29 °FQuite cool.No wind93%30.35 "HgN/A
9:48 pm29 °FQuite cool.No wind93%30.35 "HgN/A
9:38 pm29 °FQuite cool.No wind93%30.35 "HgN/A
9:18 pm29 °FQuite cool.No wind93%30.34 "HgN/A
8:48 pm30 °FQuite cool.No wind93%30.34 "HgN/A
8:18 pm30 °FQuite cool.No wind93%30.34 "HgN/A
7:38 pm30 °FQuite cool.No wind93%30.34 "HgN/A
7:28 pm30 °FQuite cool.No wind92%30.34 "HgN/A
6:48 pm30 °FLight rain.No wind92%30.33 "HgN/A
6:08 pm30 °FLight rain.No wind92%30.34 "HgN/A
5:48 pm30 °FLight rain.No wind92%30.34 "HgN/A
5:38 pm29 °FLight rain.No wind92%30.34 "HgN/A
5:08 pm30 °FLight rain.No wind91%30.34 "HgN/A
Weather by CustomWeather, © 2017

See weather overviewHow to use our weather pages